| time (UTC) | temp C | wind direction | speed KPH | gust KPH | rain 1hr cm | rain 24hr cm | rain mn cm | humidity % | barometer mb |
| 20260903051601 | 16 | 0 | 0.0 | 0.0 | 0.00 | 0.00 | 0.00 | 88 | 1022.1 |
| 20260903050059 | 16 | 0 | 0.0 | 0.0 | 0.00 | 0.00 | 0.00 | 88 | 1022.0 |
| 20260903044551 | 16 | 0 | 0.0 | 0.0 | 0.00 | 0.00 | 0.00 | 87 | 1021.9 |
| 20260903043101 | 16 | 0 | 0.0 | 0.0 | 0.00 | 0.00 | 0.00 | 87 | 1021.9 |
| 20260903041556 | 16 | 0 | 0.0 | 0.0 | 0.00 | 0.00 | 0.00 | 87 | 1021.8 |
| 20260903040053 | 16 | 0 | 0.0 | 0.0 | 0.00 | 0.00 | 0.00 | 86 | 1021.9 |
| 20260903034548 | 16 | 0 | 0.0 | 0.0 | 0.00 | 0.00 | 0.00 | 86 | 1022.2 |
| 20260903033101 | 16 | 0 | 0.0 | 0.0 | 0.00 | 0.00 | 0.00 | 86 | 1022.2 |
| 20260903031554 | 17 | 0 | 0.0 | 0.0 | 0.00 | 0.00 | 0.00 | 85 | 1022.2 |
| 20260903030104 | 17 | 0 | 0.0 | 0.0 | 0.00 | 0.00 | 0.00 | 85 | 1022.3 |
| 20260903024548 | 17 | 0 | 0.0 | 0.0 | 0.00 | 0.00 | 0.00 | 85 | 1022.4 |
| 20260903023054 | 17 | 0 | 0.0 | 0.0 | 0.00 | 0.00 | 0.00 | 85 | 1022.4 |
| 20260903021552 | 17 | 0 | 0.0 | 0.0 | 0.00 | 0.00 | 0.00 | 84 | 1022.5 |
| 20260903020056 | 17 | 0 | 0.0 | 0.0 | 0.00 | 0.00 | 0.00 | 84 | 1022.5 |
| 20260903014557 | 17 | 0 | 0.0 | 0.0 | 0.00 | 0.00 | 0.00 | 83 | 1022.4 |
| 20260903013053 | 17 | 0 | 0.0 | 0.0 | 0.00 | 0.00 | 0.00 | 83 | 1022.5 |
| 20260903011557 | 17 | 0 | 0.0 | 1.6 | 0.00 | 0.00 | 0.00 | 83 | 1022.5 |
| 20260903010052 | 18 | 0 | 0.0 | 0.0 | 0.00 | 0.00 | 0.00 | 82 | 1022.6 |
| 20260903004559 | 18 | 0 | 0.0 | 0.0 | 0.00 | 0.00 | 0.00 | 81 | 1022.6 |
| 20260903003048 | 18 | 0 | 0.0 | 1.6 | 0.00 | 0.00 | 0.00 | 81 | 1022.6 |
| 20260903001555 | 18 | 0 | 0.0 | 0.0 | 0.00 | 0.00 | 0.00 | 80 | 1022.5 |
| 20260903000052 | 18 | 0 | 0.0 | 0.0 | 0.00 | 0.00 | 0.00 | 80 | 1022.5 |
| 20260902234549 | 18 | 0 | 0.0 | 0.0 | 0.00 | 0.00 | 0.00 | 80 | 1022.4 |
| 20260902233102 | 18 | 0 | 0.0 | 0.0 | 0.00 | 0.00 | 0.00 | 79 | 1022.2 |
| 20260902231552 | 19 | 0 | 0.0 | 0.0 | 0.00 | 0.00 | 0.00 | 79 | 1022.3 |
| 20260902230050 | 19 | 0 | 0.0 | 0.0 | 0.00 | 0.00 | 0.00 | 78 | 1022.3 |
| 20260902224554 | 20 | 0 | 0.0 | 0.0 | 0.00 | 0.00 | 0.00 | 78 | 1022.3 |
| 20260902223115 | 20 | 0 | 0.0 | 0.0 | 0.00 | 0.00 | 0.00 | 77 | 1022.3 |
| 20260902221554 | 20 | 0 | 0.0 | 1.6 | 0.00 | 0.00 | 0.00 | 77 | 1022.2 |
| 20260902220058 | 20 | 0 | 0.0 | 0.0 | 0.00 | 0.00 | 0.00 | 77 | 1022.2 |
| 20260902214554 | 20 | 0 | 0.0 | 0.0 | 0.00 | 0.00 | 0.00 | 76 | 1022.3 |
| 20260902213048 | 21 | 0 | 0.0 | 0.0 | 0.00 | 0.00 | 0.00 | 75 | 1022.0 |
| 20260902211556 | 21 | 0 | 0.0 | 0.0 | 0.00 | 0.00 | 0.00 | 74 | 1022.1 |
| 20260902210054 | 21 | 0 | 0.0 | 0.0 | 0.00 | 0.00 | 0.00 | 73 | 1022.0 |
| 20260902204632 | 21 | 0 | 0.0 | 0.0 | 0.00 | 0.00 | 0.00 | 73 | 1021.9 |
| 20260902203051 | 22 | 0 | 0.0 | 0.0 | 0.00 | 0.00 | 0.00 | 72 | 1021.9 |
| 20260902201554 | 22 | 0 | 0.0 | 1.6 | 0.00 | 0.00 | 0.00 | 71 | 1021.8 |
| 20260902200055 | 23 | 0 | 0.0 | 0.0 | 0.00 | 0.00 | 0.00 | 69 | 1021.6 |
| 20260902194549 | 23 | 0 | 0.0 | 0.0 | 0.00 | 0.00 | 0.00 | 68 | 1021.5 |
| 20260902193046 | 23 | 0 | 0.0 | 0.0 | 0.00 | 0.00 | 0.00 | 67 | 1021.3 |
| 20260902191553 | 23 | 262 | 0.0 | 3.2 | 0.00 | 0.00 | 0.00 | 66 | 1021.2 |
| 20260902190055 | 24 | 219 | 1.6 | 6.4 | 0.00 | 0.00 | 0.00 | 66 | 1020.9 |
| 20260902184549 | 25 | 0 | 1.6 | 4.8 | 0.00 | 0.00 | 0.00 | 64 | 1020.8 |
| 20260902183111 | 25 | 164 | 4.8 | 9.7 | 0.00 | 0.00 | 0.00 | 62 | 1020.6 |
| 20260902181602 | 25 | 165 | 1.6 | 8.0 | 0.00 | 0.00 | 0.00 | 60 | 1020.5 |
| 20260902180051 | 26 | 150 | 0.0 | 9.7 | 0.00 | 0.00 | 0.00 | 58 | 1020.3 |
| 20260902174551 | 26 | 240 | 1.6 | 9.7 | 0.00 | 0.00 | 0.00 | 57 | 1020.2 |
| 20260902173104 | 27 | 192 | 3.2 | 8.0 | 0.00 | 0.00 | 0.00 | 55 | 1020.2 |
| 20260902171554 | 28 | 147 | 6.4 | 12.9 | 0.00 | 0.00 | 0.00 | 54 | 1020.2 |
| 20260902170056 | 27 | 168 | 4.8 | 11.3 | 0.00 | 0.00 | 0.00 | 55 | 1020.0 |
| 20260902164602 | 28 | 151 | 4.8 | 17.7 | 0.00 | 0.00 | 0.00 | 53 | 1019.9 |
| 20260902163051 | 28 | 141 | 8.0 | 22.5 | 0.00 | 0.00 | 0.00 | 52 | 1019.9 |
| 20260902161551 | 29 | 141 | 8.0 | 22.5 | 0.00 | 0.00 | 0.00 | 51 | 1019.9 |
| 20260902160047 | 30 | 256 | 8.0 | 25.7 | 0.00 | 0.00 | 0.00 | 50 | 1019.9 |
| 20260902154555 | 30 | 184 | 8.0 | 24.1 | 0.00 | 0.00 | 0.00 | 49 | 1020.1 |
| 20260902153059 | 30 | 188 | 6.4 | 19.3 | 0.00 | 0.00 | 0.00 | 48 | 1020.0 |
| 20260902151549 | 30 | 113 | 6.4 | 17.7 | 0.00 | 0.00 | 0.00 | 46 | 1020.0 |
| 20260902150048 | 30 | 163 | 8.0 | 20.9 | 0.00 | 0.00 | 0.00 | 46 | 1019.9 |
| 20260902144552 | 30 | 144 | 8.0 | 16.1 | 0.00 | 0.00 | 0.00 | 46 | 1019.9 |
| 20260902143053 | 30 | 208 | 6.4 | 22.5 | 0.00 | 0.00 | 0.00 | 46 | 1020.2 |
| 20260902141549 | 30 | 136 | 8.0 | 22.5 | 0.00 | 0.00 | 0.00 | 46 | 1020.4 |
| 20260902140100 | 30 | 155 | 8.0 | 20.9 | 0.00 | 0.00 | 0.00 | 46 | 1020.4 |
| 20260902134554 | 30 | 206 | 8.0 | 20.9 | 0.00 | 0.00 | 0.00 | 45 | 1020.5 |
| 20260902133047 | 30 | 154 | 9.7 | 24.1 | 0.00 | 0.00 | 0.00 | 45 | 1020.6 |
| 20260902131549 | 30 | 174 | 8.0 | 22.5 | 0.00 | 0.00 | 0.00 | 46 | 1020.6 |
| 20260902130044 | 30 | 159 | 6.4 | 22.5 | 0.00 | 0.00 | 0.00 | 46 | 1020.6 |
| 20260902124553 | 30 | 165 | 11.3 | 27.4 | 0.00 | 0.00 | 0.00 | 45 | 1020.6 |
| 20260902123053 | 30 | 165 | 9.7 | 19.3 | 0.00 | 0.00 | 0.00 | 44 | 1020.7 |
| 20260902121549 | 30 | 170 | 11.3 | 22.5 | 0.00 | 0.00 | 0.00 | 44 | 1020.6 |
| 20260902120057 | 31 | 155 | 8.0 | 19.3 | 0.00 | 0.00 | 0.00 | 44 | 1020.3 |
| 20260902114554 | 31 | 206 | 6.4 | 17.7 | 0.00 | 0.00 | 0.00 | 41 | 1020.4 |
| 20260902113049 | 30 | 164 | 4.8 | 12.9 | 0.00 | 0.00 | 0.00 | 38 | 1020.3 |
| 20260902111602 | 30 | 215 | 4.8 | 17.7 | 0.00 | 0.00 | 0.00 | 39 | 1020.4 |
| 20260902104605 | 30 | 190 | 4.8 | 12.9 | 0.00 | 0.00 | 0.00 | 47 | 1020.5 |
| 20260902103122 | 29 | 293 | 4.8 | 9.7 | 0.00 | 0.00 | 0.00 | 48 | 1020.6 |
| 20260902101604 | 29 | 117 | 1.6 | 4.8 | 0.00 | 0.00 | 0.00 | 50 | 1020.7 |
| 20260902100053 | 28 | 0 | 1.6 | 4.8 | 0.00 | 0.00 | 0.00 | 51 | 1020.8 |
| 20260902094552 | 28 | 146 | 1.6 | 4.8 | 0.00 | 0.00 | 0.00 | 53 | 1020.9 |
| 20260902093046 | 27 | 93 | 1.6 | 6.4 | 0.00 | 0.00 | 0.00 | 55 | 1020.9 |
| 20260902091552 | 27 | 259 | 0.0 | 6.4 | 0.00 | 0.00 | 0.00 | 59 | 1020.8 |
| 20260902090052 | 26 | 329 | 1.6 | 6.4 | 0.00 | 0.00 | 0.00 | 62 | 1020.9 |
| 20260902084554 | 25 | 251 | 1.6 | 9.7 | 0.00 | 0.00 | 0.00 | 66 | 1020.9 |
| 20260902083051 | 24 | 14 | 3.2 | 8.0 | 0.00 | 0.00 | 0.00 | 69 | 1020.8 |
| 20260902081555 | 23 | 0 | 1.6 | 9.7 | 0.00 | 0.00 | 0.00 | 71 | 1020.9 |
| 20260902080050 | 23 | 94 | 0.0 | 4.8 | 0.00 | 0.00 | 0.00 | 73 | 1020.9 |
| 20260902074546 | 22 | 74 | 3.2 | 8.0 | 0.00 | 0.00 | 0.00 | 75 | 1020.8 |
| 20260902073047 | 22 | 57 | 1.6 | 4.8 | 0.00 | 0.00 | 0.00 | 78 | 1020.8 |
| 20260902071552 | 21 | 42 | 1.6 | 6.4 | 0.00 | 0.00 | 0.00 | 80 | 1020.9 |
| 20260902070055 | 20 | 0 | 0.0 | 0.0 | 0.00 | 0.00 | 0.00 | 83 | 1020.9 |
| 20260902064558 | 19 | 0 | 0.0 | 3.2 | 0.00 | 0.00 | 0.00 | 87 | 1020.7 |
| 20260902063107 | 18 | 0 | 0.0 | 1.6 | 0.00 | 0.00 | 0.00 | 91 | 1020.5 |
| 20260902061609 | 17 | 0 | 0.0 | 0.0 | 0.00 | 0.00 | 0.00 | 91 | 1020.5 |
| 20260902060057 | 17 | 0 | 0.0 | 0.0 | 0.00 | 0.00 | 0.00 | 92 | 1020.4 |
| 20260902054553 | 16 | 0 | 0.0 | 0.0 | 0.00 | 0.00 | 0.00 | 92 | 1020.3 |
| 20260902053105 | 16 | 0 | 0.0 | 0.0 | 0.00 | 0.00 | 0.00 | 91 | 1020.3 |